CFG1402 LEPA-EDDF

Flight info

Callsign CFG1402
Flight time 1h 49m
Altitude 32000
Route MEROS DCT LAPIT DCT CHELY DCT LUMAS DCT MAXIR DCT LUSOL DCT BODRU DCT OKTET DCT IRMAR/N0438F380 DCT KINES DCT VANAS DCT MOBLO DCT UBIMA DCT SOSAL DCT KORED DCT BERSU N871 DITON/N0440F390 DCT LADOL/N0436F380 T163 EMPAX EMPAX5B
Aircraft A20N/M-SDE2E3FGHIRWXY/LB1

Departure

Time 2026-05-07 07:50
Airport Palma de Mallorca Airport (LEPA)

Arrival

Time 2026-05-07 09:40
Airport Frankfurt Main Airport (EDDF)
Time Latitude Longitude Altitude Speed Heading
2026-05-07 07:19 39.54999 2.73441 38 ft 0 kts 164°
2026-05-07 07:38 39.55000 2.73440 38 ft 2 kts 164°
2026-05-07 07:38 39.55017 2.73433 36 ft 3 kts 155°
2026-05-07 07:39 39.55028 2.73424 34 ft 1 kts 135°
2026-05-07 07:39 39.55034 2.73415 36 ft 1 kts 109°
2026-05-07 07:39 39.55037 2.73402 34 ft 2 kts 91°
2026-05-07 07:39 39.55036 2.73388 37 ft 1 kts 84°
2026-05-07 07:40 39.55036 2.73378 36 ft 1 kts 82°
2026-05-07 07:40 39.55035 2.73371 34 ft 0 kts 82°
2026-05-07 07:44 39.55035 2.73375 35 ft 2 kts 82°
2026-05-07 07:44 39.55051 2.73422 36 ft 5 kts 59°
2026-05-07 07:44 39.55087 2.73500 38 ft 15 kts 59°
2026-05-07 07:44 39.55140 2.73612 38 ft 9 kts 58°
2026-05-07 07:45 39.55178 2.73696 38 ft 12 kts 65°
2026-05-07 07:45 39.55133 2.73778 38 ft 14 kts 149°
2026-05-07 07:45 39.55047 2.73844 38 ft 13 kts 149°
2026-05-07 07:45 39.54962 2.73911 38 ft 16 kts 149°
2026-05-07 07:46 39.54863 2.73988 36 ft 14 kts 149°
2026-05-07 07:46 39.54798 2.73962 38 ft 11 kts 237°
2026-05-07 07:46 39.54750 2.73952 38 ft 9 kts 155°
2026-05-07 07:46 39.54693 2.73925 38 ft 11 kts 239°
2026-05-07 07:47 39.54645 2.73821 36 ft 17 kts 238°
2026-05-07 07:47 39.54572 2.73669 36 ft 14 kts 239°
2026-05-07 07:47 39.54510 2.73539 38 ft 19 kts 238°
2026-05-07 07:47 39.54446 2.73403 38 ft 18 kts 239°
2026-05-07 07:48 39.54376 2.73254 38 ft 21 kts 238°
2026-05-07 07:48 39.54314 2.73123 38 ft 17 kts 238°
2026-05-07 07:48 39.54255 2.73047 38 ft 12 kts 185°
2026-05-07 07:48 39.54213 2.73110 37 ft 8 kts 101°
2026-05-07 07:49 39.54212 2.73191 38 ft 10 kts 90°
2026-05-07 07:49 39.54212 2.73294 38 ft 12 kts 90°
2026-05-07 07:49 39.54237 2.73406 38 ft 14 kts 59°
2026-05-07 07:49 39.54361 2.73669 38 ft 72 kts 59°
2026-05-07 07:50 39.54755 2.74495 46 ft 139 kts 59°
2026-05-07 07:50 39.55302 2.75640 539 ft 157 kts 58°
2026-05-07 07:50 39.55863 2.76813 1534 ft 150 kts 58°
2026-05-07 07:50 39.56424 2.77997 2262 ft 162 kts 60°
2026-05-07 07:51 39.57025 2.79340 2806 ft 183 kts 62°
2026-05-07 07:51 39.57679 2.80841 3350 ft 203 kts 62°
2026-05-07 07:51 39.58413 2.82536 3858 ft 227 kts 62°
2026-05-07 07:51 39.59231 2.84405 4484 ft 248 kts 62°
2026-05-07 07:52 39.60108 2.86398 5324 ft 258 kts 61°
2026-05-07 07:52 39.61005 2.88435 6316 ft 264 kts 61°
2026-05-07 07:52 39.61932 2.90543 7158 ft 272 kts 61°
2026-05-07 07:52 39.62879 2.92697 8095 ft 278 kts 61°
2026-05-07 07:53 39.63846 2.94899 9012 ft 284 kts 61°
2026-05-07 07:53 39.64835 2.97154 9915 ft 291 kts 61°
2026-05-07 07:53 39.65860 2.99494 10506 ft 309 kts 61°
2026-05-07 07:53 39.66961 3.02013 10805 ft 334 kts 61°
2026-05-07 07:54 39.68142 3.04714 11321 ft 349 kts 61°
2026-05-07 07:54 39.69338 3.07449 12068 ft 357 kts 61°
2026-05-07 07:54 39.70575 3.10280 12895 ft 362 kts 61°
2026-05-07 07:54 39.71828 3.13153 13723 ft 367 kts 61°
2026-05-07 07:55 39.73098 3.16069 14439 ft 372 kts 60°
2026-05-07 07:55 39.74380 3.19014 15187 ft 377 kts 60°
2026-05-07 07:55 39.75679 3.21999 15908 ft 382 kts 60°
2026-05-07 07:55 39.77003 3.25012 16620 ft 387 kts 58°
2026-05-07 07:56 39.78589 3.27854 17320 ft 391 kts 49°
2026-05-07 07:56 39.80392 3.30533 18034 ft 396 kts 48°
2026-05-07 07:56 39.82210 3.33246 18666 ft 400 kts 49°
2026-05-07 07:56 39.84029 3.35972 19219 ft 406 kts 49°
2026-05-07 07:57 39.85892 3.38772 19781 ft 411 kts 49°
2026-05-07 07:57 39.87777 3.41607 20337 ft 417 kts 48°
2026-05-07 07:57 39.89689 3.44484 20901 ft 422 kts 48°
2026-05-07 07:57 39.91622 3.47396 21459 ft 427 kts 48°
2026-05-07 07:58 39.93581 3.50350 21993 ft 433 kts 48°
2026-05-07 07:58 39.95563 3.53342 22528 ft 438 kts 48°
2026-05-07 07:58 39.97571 3.56376 23053 ft 444 kts 48°
2026-05-07 07:58 39.99599 3.59442 23563 ft 449 kts 48°
2026-05-07 07:59 40.01649 3.62547 24026 ft 454 kts 48°
2026-05-07 07:59 40.03718 3.65682 24513 ft 457 kts 48°
2026-05-07 07:59 40.05801 3.68840 24980 ft 461 kts 48°
2026-05-07 07:59 40.07898 3.72024 25427 ft 465 kts 48°
2026-05-07 08:00 40.09988 3.75199 25877 ft 468 kts 48°
2026-05-07 08:00 40.12121 3.78444 26310 ft 472 kts 48°
2026-05-07 08:00 40.14265 3.81710 26735 ft 475 kts 48°
2026-05-07 08:00 40.16430 3.85011 27154 ft 479 kts 48°
2026-05-07 08:01 40.18605 3.88330 27561 ft 482 kts 48°
2026-05-07 08:01 40.20794 3.91674 27950 ft 486 kts 48°
2026-05-07 08:01 40.23000 3.95049 28333 ft 489 kts 48°
2026-05-07 08:01 40.25221 3.98449 28689 ft 493 kts 48°
2026-05-07 08:02 40.27453 4.01870 29048 ft 496 kts 48°
2026-05-07 08:02 40.29705 4.05326 29382 ft 500 kts 48°
2026-05-07 08:02 40.31970 4.08805 29724 ft 503 kts 48°
2026-05-07 08:02 40.34246 4.12306 30067 ft 506 kts 48°
2026-05-07 08:03 40.36533 4.15827 30383 ft 508 kts 48°
2026-05-07 08:03 40.38537 4.18916 30692 ft 510 kts 48°
2026-05-07 08:03 40.40839 4.22469 31030 ft 512 kts 48°
2026-05-07 08:03 40.43118 4.25991 31399 ft 512 kts 48°
2026-05-07 08:04 40.44792 4.28580 31704 ft 512 kts 48°
2026-05-07 08:04 40.47112 4.32117 31824 ft 509 kts 44°
2026-05-07 08:04 40.49750 4.35168 31932 ft 503 kts 32°
2026-05-07 08:04 40.52743 4.37477 32005 ft 497 kts 20°
2026-05-07 08:05 40.55972 4.38974 32013 ft 488 kts
2026-05-07 08:05 40.62616 4.40163 32008 ft 481 kts
2026-05-07 08:06 40.69251 4.41334 32007 ft 482 kts
2026-05-07 08:06 40.75880 4.42841 32006 ft 483 kts
2026-05-07 08:07 40.82490 4.44435 32000 ft 483 kts
2026-05-07 08:07 40.89100 4.46034 32005 ft 482 kts
2026-05-07 08:08 40.95655 4.47617 32012 ft 481 kts
2026-05-07 08:08 41.02233 4.49207 32015 ft 480 kts
2026-05-07 08:09 41.08807 4.50800 32013 ft 480 kts
2026-05-07 08:09 41.15375 4.52400 32011 ft 479 kts
2026-05-07 08:10 41.21939 4.54002 32011 ft 479 kts
2026-05-07 08:10 41.28456 4.55596 32014 ft 478 kts
2026-05-07 08:11 41.35010 4.57202 32015 ft 478 kts
2026-05-07 08:11 41.41552 4.58808 32015 ft 478 kts
2026-05-07 08:12 41.48090 4.60417 32018 ft 478 kts
2026-05-07 08:12 41.54625 4.62029 32020 ft 477 kts
2026-05-07 08:13 41.61159 4.63644 32020 ft 477 kts
2026-05-07 08:13 41.67647 4.65251 32019 ft 477 kts
2026-05-07 08:14 41.74060 4.67713 32020 ft 485 kts 19°
2026-05-07 08:14 41.80028 4.72059 32017 ft 489 kts 27°
2026-05-07 08:15 41.85882 4.76749 32020 ft 489 kts 27°
2026-05-07 08:15 41.91684 4.81407 32017 ft 489 kts 27°
2026-05-07 08:16 41.97517 4.86113 32016 ft 489 kts 27°
2026-05-07 08:16 42.03352 4.90834 32016 ft 489 kts 27°
2026-05-07 08:17 42.09193 4.95570 32015 ft 489 kts 27°
2026-05-07 08:17 42.15029 5.00313 32020 ft 489 kts 27°
2026-05-07 08:18 42.20856 5.05059 32018 ft 489 kts 27°
2026-05-07 08:18 42.26689 5.09821 32018 ft 490 kts 27°
2026-05-07 08:19 42.32475 5.14554 32020 ft 489 kts 27°
2026-05-07 08:19 42.38303 5.19332 32021 ft 489 kts 27°
2026-05-07 08:20 42.44124 5.24114 32017 ft 489 kts 27°
2026-05-07 08:20 42.49945 5.28908 32022 ft 489 kts 27°
2026-05-07 08:21 42.55753 5.33701 32020 ft 488 kts 27°
2026-05-07 08:21 42.61556 5.38500 32013 ft 488 kts 27°
2026-05-07 08:22 42.67319 5.43276 32012 ft 488 kts 27°
2026-05-07 08:22 42.73118 5.48093 32012 ft 487 kts 27°
2026-05-07 08:23 42.78905 5.52911 32008 ft 487 kts 27°
2026-05-07 08:23 42.84649 5.57704 32008 ft 487 kts 27°
2026-05-07 08:24 42.90424 5.62532 32005 ft 487 kts 27°
2026-05-07 08:24 42.96197 5.67371 32003 ft 486 kts 27°
2026-05-07 08:25 43.01963 5.72214 31999 ft 486 kts 27°
2026-05-07 08:25 43.07721 5.77061 31994 ft 486 kts 27°
2026-05-07 08:26 43.16355 5.84350 31995 ft 486 kts 27°
2026-05-07 08:26 43.22117 5.89228 31998 ft 486 kts 27°
2026-05-07 08:27 43.27874 5.94112 31990 ft 486 kts 27°
2026-05-07 08:27 43.33583 5.98966 31996 ft 485 kts 27°
2026-05-07 08:28 43.39543 6.03150 31986 ft 475 kts 12°
2026-05-07 08:28 43.45923 6.04690 31983 ft 461 kts 358°
2026-05-07 08:29 43.52334 6.05332 31986 ft 462 kts 358°
2026-05-07 08:29 43.58747 6.05986 31990 ft 462 kts 358°
2026-05-07 08:30 43.65161 6.06635 31993 ft 462 kts 358°
2026-05-07 08:30 43.71576 6.07284 31996 ft 462 kts 358°
2026-05-07 08:31 43.77962 6.08887 31995 ft 473 kts 12°
2026-05-07 08:31 43.83046 6.11875 32000 ft 481 kts 21°
2026-05-07 08:32 43.89044 6.15960 32008 ft 481 kts 21°
2026-05-07 08:32 43.95056 6.20047 32004 ft 480 kts 21°
2026-05-07 08:33 44.01011 6.24119 32000 ft 480 kts 21°
2026-05-07 08:33 44.06967 6.28207 31984 ft 475 kts 21°
2026-05-07 08:34 44.12908 6.32289 31981 ft 477 kts 21°
2026-05-07 08:34 44.18845 6.36380 31981 ft 475 kts 21°
2026-05-07 08:35 44.24771 6.40471 31979 ft 475 kts 21°
2026-05-07 08:35 44.30698 6.44571 31989 ft 476 kts 21°
2026-05-07 08:36 44.36646 6.48696 32002 ft 477 kts 21°
2026-05-07 08:36 44.42569 6.52812 31987 ft 475 kts 21°
2026-05-07 08:37 44.48478 6.56928 31986 ft 474 kts 21°
2026-05-07 08:37 44.54385 6.61053 31985 ft 473 kts 21°
2026-05-07 08:38 44.60281 6.65180 31989 ft 473 kts 21°
2026-05-07 08:38 44.66175 6.69315 31997 ft 473 kts 21°
2026-05-07 08:39 44.72034 6.73432 31999 ft 474 kts 21°
2026-05-07 08:39 44.77988 6.77320 31996 ft 466 kts 12°
2026-05-07 08:40 44.84270 6.78746 32016 ft 451 kts 354°
2026-05-07 08:40 44.90519 6.78347 32013 ft 448 kts 352°
2026-05-07 08:41 44.96732 6.77944 31999 ft 446 kts 352°
2026-05-07 08:41 45.02901 6.77540 32024 ft 448 kts 352°
2026-05-07 08:42 45.09126 6.77125 32026 ft 448 kts 352°
2026-05-07 08:42 45.15356 6.76711 32029 ft 447 kts 352°
2026-05-07 08:43 45.21573 6.76296 32032 ft 447 kts 352°
2026-05-07 08:43 45.27778 6.75882 32030 ft 446 kts 353°
2026-05-07 08:44 45.33979 6.75467 32036 ft 447 kts 353°
2026-05-07 08:44 45.40208 6.75050 32048 ft 448 kts 353°
2026-05-07 08:45 45.46451 6.74631 32041 ft 447 kts 353°
2026-05-07 08:45 45.52631 6.74212 32037 ft 447 kts 353°
2026-05-07 08:46 45.58834 6.73788 32037 ft 447 kts 353°
2026-05-07 08:46 45.65048 6.73363 32034 ft 447 kts 353°
2026-05-07 08:47 45.71257 6.72937 32032 ft 447 kts 353°
2026-05-07 08:47 45.77488 6.72509 32044 ft 449 kts 353°
2026-05-07 08:48 45.83741 6.72080 32025 ft 447 kts 354°
2026-05-07 08:48 45.89959 6.71657 32024 ft 447 kts 354°
2026-05-07 08:49 45.96181 6.71232 32019 ft 447 kts 354°
2026-05-07 08:49 46.02361 6.70808 32019 ft 448 kts 354°
2026-05-07 08:50 46.08583 6.70394 32016 ft 448 kts 356°
2026-05-07 08:50 46.14820 6.71198 32020 ft 454 kts
2026-05-07 08:51 46.20936 6.73637 32024 ft 456 kts 13°
2026-05-07 08:51 46.27043 6.76195 32028 ft 457 kts 13°
2026-05-07 08:52 46.33143 6.78768 32028 ft 456 kts 14°
2026-05-07 08:52 46.39244 6.81359 32029 ft 456 kts 14°
2026-05-07 08:53 46.45293 6.83936 32028 ft 456 kts 14°
2026-05-07 08:53 46.51375 6.86547 32030 ft 455 kts 16°
2026-05-07 08:54 46.54282 6.88394 32037 ft 458 kts 28°
2026-05-07 08:54 46.56906 6.91048 32033 ft 460 kts 39°
2026-05-07 08:54 46.59133 6.94391 32036 ft 462 kts 50°
2026-05-07 08:54 46.61143 6.98028 32032 ft 461 kts 50°
2026-05-07 08:55 46.65175 7.05290 32035 ft 460 kts 50°
2026-05-07 08:55 46.69191 7.12540 32034 ft 459 kts 50°
2026-05-07 08:56 46.73200 7.19803 32028 ft 459 kts 50°
2026-05-07 08:56 46.77169 7.27015 32012 ft 458 kts 50°
2026-05-07 08:57 46.81152 7.34271 32019 ft 458 kts 50°
2026-05-07 08:57 46.85128 7.41533 32017 ft 457 kts 50°
2026-05-07 08:58 46.89095 7.48808 32017 ft 457 kts 50°
2026-05-07 08:58 46.93046 7.56079 32014 ft 456 kts 50°
2026-05-07 08:59 46.96996 7.63365 32014 ft 456 kts 50°
2026-05-07 08:59 47.00913 7.70609 32016 ft 456 kts 50°
2026-05-07 09:00 47.04854 7.77916 32018 ft 456 kts 50°
2026-05-07 09:00 47.08786 7.85225 32022 ft 456 kts 50°
2026-05-07 09:01 47.12715 7.92551 32028 ft 456 kts 51°
2026-05-07 09:01 47.16206 8.00345 32037 ft 457 kts 57°
2026-05-07 09:02 47.19569 8.08214 32036 ft 457 kts 57°
2026-05-07 09:02 47.22951 8.16146 32042 ft 457 kts 57°
2026-05-07 09:03 47.26322 8.24090 32042 ft 457 kts 57°
2026-05-07 09:03 47.30061 8.31625 32046 ft 455 kts 43°
2026-05-07 09:04 47.32491 8.34587 32045 ft 453 kts 32°
2026-05-07 09:04 47.35231 8.36866 32044 ft 451 kts 24°
2026-05-07 09:04 47.40901 8.40851 32047 ft 451 kts 24°
2026-05-07 09:05 47.46535 8.44846 32049 ft 451 kts 24°
2026-05-07 09:05 47.52197 8.48867 32048 ft 451 kts 24°
2026-05-07 09:06 47.57861 8.52898 32049 ft 452 kts 24°
2026-05-07 09:06 47.63522 8.56935 32052 ft 452 kts 24°
2026-05-07 09:07 47.69188 8.60986 32052 ft 451 kts 24°
2026-05-07 09:07 47.74849 8.65043 32042 ft 451 kts 24°
2026-05-07 09:08 47.80511 8.69111 32042 ft 451 kts 24°
2026-05-07 09:08 47.86162 8.73181 32037 ft 451 kts 24°
2026-05-07 09:09 47.91812 8.77260 32035 ft 451 kts 24°
2026-05-07 09:09 47.97424 8.81322 32035 ft 451 kts 24°
2026-05-07 09:10 48.03070 8.85418 32033 ft 451 kts 24°
2026-05-07 09:10 48.08713 8.89521 32024 ft 451 kts 24°
2026-05-07 09:11 48.14385 8.93489 32021 ft 449 kts 19°
2026-05-07 09:11 48.20405 8.95829 32017 ft 447 kts
2026-05-07 09:12 48.26582 8.96795 32013 ft 446 kts
2026-05-07 09:12 48.32760 8.97755 32014 ft 446 kts
2026-05-07 09:13 48.38953 8.98706 32013 ft 447 kts
2026-05-07 09:13 48.45099 8.99644 32015 ft 447 kts
2026-05-07 09:14 48.51279 9.00587 32016 ft 447 kts
2026-05-07 09:14 48.57458 9.01531 31890 ft 444 kts
2026-05-07 09:15 48.60517 9.02000 31466 ft 440 kts
2026-05-07 09:15 48.63548 9.02518 30904 ft 437 kts
2026-05-07 09:15 48.66544 9.03243 30312 ft 434 kts
2026-05-07 09:15 48.69498 9.03949 29778 ft 427 kts
2026-05-07 09:16 48.72418 9.04643 29075 ft 423 kts
2026-05-07 09:16 48.75314 9.05333 28370 ft 419 kts
2026-05-07 09:16 48.78181 9.06016 27683 ft 415 kts
2026-05-07 09:16 48.81023 9.06695 27029 ft 412 kts
2026-05-07 09:17 48.83848 9.07372 26374 ft 409 kts
2026-05-07 09:17 48.86642 9.08041 25743 ft 405 kts
2026-05-07 09:17 48.89425 9.08603 25121 ft 402 kts
2026-05-07 09:17 48.92204 9.08985 24521 ft 399 kts
2026-05-07 09:18 48.94921 9.09370 23950 ft 396 kts
2026-05-07 09:18 48.97691 9.09768 23312 ft 393 kts
2026-05-07 09:18 48.99486 9.10026 22873 ft 391 kts
2026-05-07 09:18 49.03059 9.10537 22018 ft 386 kts
2026-05-07 09:19 49.05729 9.10918 21388 ft 383 kts
2026-05-07 09:19 49.08385 9.11296 20768 ft 380 kts
2026-05-07 09:19 49.10129 9.11544 20371 ft 379 kts
2026-05-07 09:19 49.12741 9.11917 19780 ft 376 kts
2026-05-07 09:20 49.15335 9.12287 19251 ft 373 kts
2026-05-07 09:20 49.17914 9.12655 18832 ft 370 kts
2026-05-07 09:20 49.20472 9.13021 18273 ft 369 kts
2026-05-07 09:20 49.23019 9.13388 17673 ft 366 kts
2026-05-07 09:21 49.25546 9.13752 17081 ft 363 kts
2026-05-07 09:21 49.28045 9.14138 16500 ft 360 kts
2026-05-07 09:21 49.30494 9.14906 15979 ft 357 kts 12°
2026-05-07 09:21 49.32900 9.15773 15665 ft 356 kts 11°
2026-05-07 09:22 49.35319 9.16627 15364 ft 357 kts 11°
2026-05-07 09:22 49.37726 9.17474 15064 ft 354 kts 11°
2026-05-07 09:22 49.40118 9.18318 14766 ft 352 kts 11°
2026-05-07 09:22 49.42467 9.19149 14458 ft 350 kts 11°
2026-05-07 09:23 49.44843 9.19993 14225 ft 339 kts 11°
2026-05-07 09:23 49.47061 9.20784 14099 ft 325 kts 11°
2026-05-07 09:23 49.49224 9.21556 13985 ft 312 kts 11°
2026-05-07 09:23 49.51260 9.22282 13839 ft 300 kts 11°
2026-05-07 09:24 49.53283 9.23003 13465 ft 297 kts 11°
2026-05-07 09:24 49.55290 9.23718 13007 ft 296 kts 11°
2026-05-07 09:24 49.57309 9.24211 12554 ft 292 kts 357°
2026-05-07 09:24 49.59330 9.24014 12119 ft 290 kts 353°
2026-05-07 09:25 49.61337 9.23780 11734 ft 289 kts 353°
2026-05-07 09:25 49.63338 9.23561 11327 ft 287 kts 353°
2026-05-07 09:25 49.65329 9.23354 10943 ft 286 kts 353°
2026-05-07 09:25 49.67309 9.23158 10546 ft 284 kts 353°
2026-05-07 09:26 49.69277 9.22975 10213 ft 282 kts 353°
2026-05-07 09:26 49.71214 9.22812 10046 ft 279 kts 354°
2026-05-07 09:26 49.73155 9.22653 9702 ft 280 kts 354°
2026-05-07 09:26 49.75100 9.22476 9322 ft 278 kts 351°
2026-05-07 09:27 49.76992 9.21962 8923 ft 274 kts 344°
2026-05-07 09:27 49.78841 9.21266 8486 ft 273 kts 343°
2026-05-07 09:27 49.82505 9.19847 7716 ft 269 kts 343°
2026-05-07 09:28 49.84291 9.19135 7334 ft 267 kts 343°
2026-05-07 09:28 49.86085 9.18409 6963 ft 266 kts 343°
2026-05-07 09:28 49.87891 9.17667 6589 ft 265 kts 343°
2026-05-07 09:28 49.89662 9.16926 6234 ft 262 kts 343°
2026-05-07 09:29 49.91398 9.16193 5840 ft 261 kts 343°
2026-05-07 09:29 49.93147 9.15458 5474 ft 260 kts 343°
2026-05-07 09:29 49.94892 9.14721 5137 ft 259 kts 343°
2026-05-07 09:29 49.96617 9.13981 4859 ft 256 kts 343°
2026-05-07 09:30 49.98342 9.13255 4485 ft 254 kts 343°
2026-05-07 09:30 50.00009 9.12548 4374 ft 241 kts 343°
2026-05-07 09:30 50.01567 9.11882 4214 ft 226 kts 343°
2026-05-07 09:30 50.03053 9.11253 4034 ft 217 kts 343°
2026-05-07 09:31 50.04557 9.10609 3982 ft 225 kts 343°
2026-05-07 09:31 50.06043 9.09969 3983 ft 220 kts 343°
2026-05-07 09:31 50.07532 9.09323 3976 ft 223 kts 343°
2026-05-07 09:31 50.09026 9.08675 3977 ft 220 kts 343°
2026-05-07 09:32 50.10444 9.08057 3975 ft 203 kts 343°
2026-05-07 09:32 50.11721 9.07363 3966 ft 188 kts 327°
2026-05-07 09:32 50.12563 9.05792 3997 ft 193 kts 292°
2026-05-07 09:32 50.12836 9.04093 3983 ft 193 kts 284°
2026-05-07 09:33 50.13105 9.02048 3980 ft 189 kts 283°
2026-05-07 09:33 50.13352 9.00084 3983 ft 183 kts 280°
2026-05-07 09:33 50.13337 8.98086 3989 ft 187 kts 263°
2026-05-07 09:33 50.13022 8.96115 3986 ft 187 kts 255°
2026-05-07 09:34 50.12577 8.94192 3986 ft 189 kts 251°
2026-05-07 09:34 50.12109 8.92286 3990 ft 187 kts 252°
2026-05-07 09:34 50.11648 8.90382 3992 ft 188 kts 252°
2026-05-07 09:34 50.11186 8.88474 3988 ft 188 kts 252°
2026-05-07 09:35 50.10726 8.86571 3993 ft 189 kts 252°
2026-05-07 09:35 50.10263 8.84661 3924 ft 188 kts 252°
2026-05-07 09:35 50.09803 8.82757 3693 ft 188 kts 252°
2026-05-07 09:35 50.09344 8.80854 3457 ft 187 kts 252°
2026-05-07 09:36 50.08889 8.78968 3191 ft 186 kts 252°
2026-05-07 09:36 50.08434 8.77083 2932 ft 185 kts 251°
2026-05-07 09:36 50.07981 8.75204 2682 ft 185 kts 252°
2026-05-07 09:36 50.07537 8.73361 2431 ft 178 kts 252°
2026-05-07 09:37 50.07110 8.71590 2203 ft 171 kts 252°
2026-05-07 09:37 50.06695 8.69857 1951 ft 169 kts 252°
2026-05-07 09:37 50.06311 8.68269 1742 ft 149 kts 252°
2026-05-07 09:37 50.05967 8.66835 1525 ft 134 kts 253°
2026-05-07 09:38 50.05649 8.65498 1412 ft 136 kts 253°
2026-05-07 09:38 50.05328 8.64157 1197 ft 128 kts 252°
2026-05-07 09:38 50.05011 8.62884 983 ft 124 kts 253°
2026-05-07 09:38 50.04710 8.61612 807 ft 125 kts 252°
2026-05-07 09:39 50.04412 8.60350 647 ft 125 kts 252°
2026-05-07 09:39 50.04108 8.59094 468 ft 124 kts 252°
2026-05-07 09:39 50.03814 8.57850 354 ft 117 kts 253°
2026-05-07 09:39 50.03587 8.56895 357 ft 66 kts 249°
2026-05-07 09:40 50.03460 8.56369 355 ft 46 kts 248°
2026-05-07 09:40 50.03432 8.56098 353 ft 17 kts 279°
2026-05-07 09:40 50.03451 8.55930 355 ft 17 kts 279°
2026-05-07 09:40 50.03465 8.55800 355 ft 5 kts 280°
2026-05-07 09:41 50.03469 8.55769 354 ft 2 kts 280°
2026-05-07 09:41 50.03475 8.55713 348 ft 10 kts 280°
2026-05-07 09:41 50.03491 8.55575 348 ft 14 kts 279°
2026-05-07 09:41 50.03480 8.55414 352 ft 17 kts 250°
2026-05-07 09:42 50.03434 8.55230 358 ft 19 kts 249°
2026-05-07 09:42 50.03386 8.55029 356 ft 18 kts 250°
2026-05-07 09:42 50.03339 8.54834 351 ft 20 kts 250°
2026-05-07 09:42 50.03299 8.54665 356 ft 15 kts 249°
2026-05-07 09:43 50.03280 8.54515 358 ft 13 kts 293°
2026-05-07 09:43 50.03341 8.54463 356 ft 11 kts 340°
2026-05-07 09:43 50.03407 8.54426 356 ft 10 kts 340°
2026-05-07 09:43 50.03482 8.54383 351 ft 13 kts 340°
2026-05-07 09:44 50.03573 8.54330 353 ft 14 kts 339°
2026-05-07 09:44 50.03661 8.54336 353 ft 14 kts 38°
2026-05-07 09:44 50.03694 8.54468 353 ft 15 kts 69°
2026-05-07 09:44 50.03733 8.54631 354 ft 18 kts 70°
2026-05-07 09:45 50.03781 8.54833 356 ft 21 kts 69°
2026-05-07 09:45 50.03833 8.55048 351 ft 19 kts 70°
2026-05-07 09:45 50.03882 8.55251 355 ft 21 kts 69°
2026-05-07 09:45 50.03923 8.55422 348 ft 11 kts 70°
2026-05-07 09:46 50.03995 8.55453 349 ft 13 kts 339°
2026-05-07 09:46 50.04073 8.55408 355 ft 10 kts 340°
2026-05-07 09:46 50.04126 8.55466 352 ft 12 kts 71°
2026-05-07 09:46 50.04138 8.55570 354 ft 7 kts 124°
2026-05-07 09:47 50.04095 8.55599 353 ft 6 kts 160°
2026-05-07 09:47 50.04062 8.55618 350 ft 0 kts 160°
2026-05-07 09:47 50.04061 8.55619 349 ft 0 kts 160°